Location: Dittelbrunn
(50.0738°N, 10.2196°E)
Time: 02:51:19
(UTC+00:00)

USA 238 DEB - Pass Details

Date: 18 September 2020
Orbit: 1006 x 1206 km, 63.4° (Epoch: 15 October)

Event Time Altitude Azimuth Distance (km) Brightness Sun altitude
Rises 19:31:57 0° 316° (NW) 3,937 8.0 -20.3°
Reaches altitude 10° 19:34:36 10° 314° (NW) 3,004 7.1 -20.6°
Maximum altitude 19:41:44 70° 233° (SW) 1,232 4.0 -21.6°
Enters shadow 19:45:39 30° 158° (SSE) 1,960 4.6 -22.2°
